^^
Saratoga-Weather Station Historical Data
Daily Summary for August 22, 2020 Units:  English    Metric   Both
Daily Weekly Monthly Yearly Custom
  High: Low: Average:
Temperature: 69.1 °F 55 °F 62.2 °F
Dew Point: 59.5 °F 53.2 °F 56.5 °F
Humidity: 96% 66% 82%
Wind Speed: 8.1mph 0mph 1.2mph
Wind Gust: 13mph - -
Wind- - SW
Pressure: 29.9 in 29.8 in -
Precipitation: 0.04 in    
Historical Graphs
 
 
Tabular Data for August 22, 2020
Time Temperature Dew Point Pressure Wind Wind Speed Wind Gust Humidity Rainfall Rate (Hourly) solar
00:01 63.3 °F 56.7 °F 29.8 in NE 0.9 mph 3 mph 79% 0 in 0 W/m2
00:06 63.1 °F 56.5 °F 29.8 in North 4 mph 9 mph 79% 0 in 0 W/m2
00:11 63.1 °F 56.5 °F 29.8 in NW 2 mph 5 mph 79% 0 in 0 W/m2
00:16 63.3 °F 56.3 °F 29.8 in NW 2 mph 6 mph 78% 0 in 0 W/m2
00:21 63.1 °F 56.1 °F 29.8 in North 2.9 mph 3 mph 78% 0 in 0 W/m2
00:26 63.1 °F 56.1 °F 29.8 in NNW 2.9 mph 4 mph 78% 0 in 0 W/m2
00:31 63.1 °F 56.1 °F 29.8 in WNW 0.9 mph 6 mph 78% 0 in 0 W/m2
00:36 63 °F 55.9 °F 29.8 in WNW 2 mph 6 mph 78% 0 in 0 W/m2
00:41 63 °F 55.9 °F 29.8 in WNW 0.9 mph 7 mph 78% 0 in 0 W/m2
00:46 63.1 °F 56.1 °F 29.8 in Calm   4 mph 78% 0 in 0 W/m2
00:51 63.1 °F 56.1 °F 29.8 in Calm   2 mph 78% 0 in 0 W/m2
00:56 63.1 °F 55.8 °F 29.8 in WNW 2.9 mph 6 mph 77% 0 in 0 W/m2
01:01 63.1 °F 55.8 °F 29.9 in West 2 mph 4 mph 77% 0 in 0 W/m2
01:06 63.1 °F 55.8 °F 29.8 in WNW 0.9 mph 6 mph 77% 0 in 0 W/m2
01:11 63 °F 55.9 °F 29.8 in NNW 0.9 mph 4 mph 78% 0 in 0 W/m2
01:16 63 °F 55.9 °F 29.8 in NE 2.9 mph 3 mph 78% 0 in 0 W/m2
01:21 63 °F 55.9 °F 29.9 in NNW 2.9 mph 3 mph 78% 0 in 0 W/m2
01:26 63 °F 55.9 °F 29.9 in West 2.9 mph 4 mph 78% 0 in 0 W/m2
01:31 62.8 °F 55.8 °F 29.9 in Calm   5 mph 78% 0 in 0 W/m2
01:36 62.8 °F 56.1 °F 29.9 in WSW 2.9 mph 9 mph 79% 0 in 0 W/m2
01:41 62.8 °F 56.1 °F 29.9 in WNW 4 mph 4 mph 79% 0 in 0 W/m2
01:46 62.6 °F 55.9 °F 29.9 in Calm   9 mph 79% 0 in 0 W/m2
01:51 62.4 °F 56.1 °F 29.9 in NW 2 mph 3 mph 80% 0 in 0 W/m2
01:56 62.2 °F 56.3 °F 29.9 in West 2 mph 4 mph 81% 0 in 0 W/m2
02:01 62.1 °F 56.1 °F 29.9 in NNW 0.9 mph 3 mph 81% 0 in 0 W/m2
02:06 61.9 °F 56.3 °F 29.9 in Calm   4 mph 82% 0 in 0 W/m2
02:11 61.7 °F 56.1 °F 29.9 in NNW 0.9 mph 2 mph 82% 0 in 0 W/m2
02:16 61.5 °F 55.9 °F 29.9 in Calm   1 mph 82% 0 in 0 W/m2
02:21 61.3 °F 56.1 °F 29.9 in Calm   1 mph 83% 0 in 0 W/m2
02:26 61.2 °F 55.9 °F 29.9 in Calm   2 mph 83% 0 in 0 W/m2
02:32 61.2 °F 55.9 °F 29.9 in NW 0.9 mph 1 mph 83% 0 in 0 W/m2
02:37 61.2 °F 55.9 °F 29.9 in North 2 mph 3 mph 83% 0 in 0 W/m2
02:42 61.2 °F 55.9 °F 29.9 in Calm   1 mph 83% 0 in 0 W/m2
02:47 61.2 °F 55.9 °F 29.9 in Calm   2 mph 83% 0 in 0 W/m2
02:52 61.2 °F 55.9 °F 29.9 in West 0.9 mph 4 mph 83% 0 in 0 W/m2
02:57 61.3 °F 55.8 °F 29.9 in Calm   3 mph 82% 0 in 0 W/m2
03:02 61.2 °F 55.6 °F 29.9 in North 2 mph 4 mph 82% 0 in 0 W/m2
03:07 61 °F 55.4 °F 29.9 in NNE 2 mph 4 mph 82% 0 in 0 W/m2
03:12 61 °F 55.8 °F 29.9 in ESE 0.9 mph 2 mph 83% 0 in 0 W/m2
03:17 60.6 °F 55.4 °F 29.9 in Calm   1 mph 83% 0 in 0 W/m2
03:22 60.4 °F 55.2 °F 29.9 in Calm   1 mph 83% 0 in 0 W/m2
03:27 60.1 °F 54.9 °F 29.9 in Calm     83% 0 in 0 W/m2
03:32 59.7 °F 54.9 °F 29.9 in NNW 2.9 mph 3 mph 84% 0 in 0 W/m2
03:37 59.7 °F 55.2 °F 29.9 in NW 2 mph 2 mph 85% 0 in 0 W/m2
03:42 59.5 °F 55 °F 29.9 in Calm     85% 0 in 0 W/m2
03:47 59.5 °F 55 °F 29.9 in NW 0.9 mph 4 mph 85% 0 in 0 W/m2
03:52 59.9 °F 55.4 °F 29.9 in Calm   1 mph 85% 0 in 0 W/m2
03:57 59.7 °F 54.9 °F 29.9 in NNW 2 mph 4 mph 84% 0 in 0 W/m2
04:02 59.5 °F 55 °F 29.9 in Calm   1 mph 85% 0 in 0 W/m2
04:07 59.5 °F 55 °F 29.9 in NW 0.9 mph 1 mph 85% 0 in 0 W/m2
04:12 59.9 °F 55 °F 29.9 in NNW 0.9 mph 3 mph 84% 0 in 0 W/m2
04:17 60.3 °F 55 °F 29.9 in Calm   2 mph 83% 0 in 0 W/m2
04:22 60.4 °F 54.9 °F 29.9 in NW 0.9 mph 2 mph 82% 0 in 0 W/m2
04:27 60.6 °F 55 °F 29.9 in South 0.9 mph 2 mph 82% 0 in 0 W/m2
04:32 60.6 °F 55 °F 29.9 in WSW 0.9 mph 3 mph 82% 0 in 0 W/m2
04:37 60.6 °F 55 °F 29.9 in Calm   1 mph 82% 0 in 0 W/m2
04:42 60.4 °F 54.9 °F 29.9 in WNW 0.9 mph 3 mph 82% 0 in 0 W/m2
04:47 60.4 °F 54.9 °F 29.9 in Calm     82% 0 in 0 W/m2
04:52 60.3 °F 55 °F 29.9 in Calm     83% 0 in 0 W/m2
04:57 59.9 °F 54.7 °F 29.9 in SSE 0.9 mph 6 mph 83% 0 in 0 W/m2
05:02 60.1 °F 54.5 °F 29.9 in North 0.9 mph 2 mph 82% 0 in 0 W/m2
05:07 60.4 °F 54.5 °F 29.9 in WSW 0.9 mph 3 mph 81% 0 in 0 W/m2
05:12 60.4 °F 54.3 °F 29.9 in NW 0.9 mph 1 mph 80% 0 in 0 W/m2
05:17 60.6 °F 54.7 °F 29.9 in NE 0.9 mph 3 mph 81% 0 in 0 W/m2
05:22 60.4 °F 54.3 °F 29.9 in Calm   4 mph 80% 0 in 0 W/m2
05:27 60.6 °F 54.5 °F 29.9 in Calm   1 mph 80% 0 in 0 W/m2
05:32 61 °F 54.5 °F 29.9 in Calm   4 mph 79% 0 in 0 W/m2
05:38 60.8 °F 54.3 °F 29.9 in Calm   3 mph 79% 0 in 0 W/m2
05:43 60.8 °F 54.3 °F 29.9 in NNW 0.9 mph 3 mph 79% 0 in 0 W/m2
05:48 60.6 °F 54.5 °F 29.9 in Calm   1 mph 80% 0 in 0 W/m2
05:53 60.4 °F 54 °F 29.9 in Calm   3 mph 79% 0 in 0 W/m2
05:58 60.4 °F 54 °F 29.9 in NE 2 mph 2 mph 79% 0 in 0 W/m2
06:03 60.4 °F 54 °F 29.9 in Calm   1 mph 79% 0 in 0 W/m2
06:08 60.4 °F 54 °F 29.9 in West 0.9 mph 2 mph 79% 0 in 0 W/m2
06:13 60.4 °F 54 °F 29.9 in NW 0.9 mph 2 mph 79% 0 in 0 W/m2
06:18 60.4 °F 54 °F 29.9 in WNW 0.9 mph 4 mph 79% 0 in 0 W/m2
06:23 60.8 °F 54 °F 29.9 in WNW 2 mph 4 mph 78% 0 in 0 W/m2
06:28 61.3 °F 53.8 °F 29.9 in NW 4.9 mph 7 mph 76% 0 in 0 W/m2
06:33 61.9 °F 54.3 °F 29.9 in NNE 0.9 mph 3 mph 76% 0 in 0 W/m2
06:38 61.9 °F 53.8 °F 29.9 in NNE 0.9 mph 2 mph 75% 0 in 0 W/m2
06:43 61.7 °F 54.1 °F 29.9 in NNW 8.1 mph 8 mph 76% 0 in 0 W/m2
06:48 61.3 °F 54.5 °F 29.9 in WNW 8.1 mph 11 mph 78% 0 in 0 W/m2
06:53 61 °F 54.5 °F 29.9 in NW 4 mph 5 mph 79% 0 in 0 W/m2
06:58 60.4 °F 54.3 °F 29.9 in WSW 4 mph 4 mph 80% 0 in 0 W/m2
07:03 60.3 °F 54.3 °F 29.9 in NW 2 mph 6 mph 81% 0 in 0 W/m2
07:08 60.1 °F 54.5 °F 29.9 in Calm   4 mph 82% 0 in 0 W/m2
07:13 59.7 °F 54.1 °F 29.9 in North 2 mph 3 mph 82% 0 in 0 W/m2
07:18 59.7 °F 54.5 °F 29.9 in NNE 0.9 mph 5 mph 83% 0 in 0 W/m2
07:23 59.4 °F 54.5 °F 29.9 in NW 0.9 mph 4 mph 84% 0.01 in 0 W/m2
07:28 59.2 °F 54.7 °F 29.9 in NW 2.9 mph 4 mph 85% 0.02 in 0 W/m2
07:33 58.8 °F 54.7 °F 29.9 in NW 0.9 mph 2 mph 86% 0.03 in 0 W/m2
07:38 58.6 °F 54.9 °F 29.9 in NW 2 mph 2 mph 87% 0.03 in 0 W/m2
07:43 58.5 °F 54.9 °F 29.9 in WNW 0.9 mph 2 mph 88% 0.03 in 0 W/m2
07:48 58.3 °F 55 °F 29.9 in SW 2 mph 2 mph 89% 0.03 in 0 W/m2
07:53 57.9 °F 55 °F 29.9 in Calm   2 mph 90% 0.03 in 0 W/m2
07:58 57.7 °F 54.9 °F 29.9 in Calm   1 mph 90% 0.03 in 0 W/m2
08:03 57.6 °F 55 °F 29.9 in Calm     91% 0.03 in 0 W/m2
08:08 57.4 °F 54.9 °F 29.9 in Calm     91% 0.04 in 0 W/m2
08:13 57 °F 54.7 °F 29.9 in Calm     92% 0.04 in 0 W/m2
08:18 56.8 °F 54.5 °F 29.9 in Calm   1 mph 92% 0.04 in 5 W/m2
08:23 56.7 °F 54.3 °F 29.9 in Calm   1 mph 92% 0.03 in 9 W/m2
08:28 56.3 °F 54 °F 29.9 in Calm     92% 0.02 in 12 W/m2
08:33 56.1 °F 53.8 °F 29.9 in Calm     92% 0.01 in 14 W/m2
08:38 55.9 °F 54 °F 29.9 in Calm     93% 0.01 in 19 W/m2
08:43 55.6 °F 53.6 °F 29.9 in Calm     93% 0.01 in 23 W/m2
08:48 55.4 °F 53.4 °F 29.9 in Calm     93% 0.01 in 26 W/m2
08:53 55.2 °F 53.2 °F 29.9 in Calm     93% 0.01 in 25 W/m2
08:58 55.2 °F 53.2 °F 29.9 in Calm     93% 0.01 in 28 W/m2
09:03 55 °F 53.4 °F 29.9 in Calm     94% 0.01 in 42 W/m2
09:08 55 °F 53.4 °F 29.9 in Calm     94% 0 in 42 W/m2
09:13 55 °F 53.4 °F 29.9 in Calm     94% 0 in 56 W/m2
09:18 55 °F 53.4 °F 29.9 in Calm     94% 0 in 47 W/m2
09:23 55 °F 53.4 °F 29.9 in Calm     94% 0 in 40 W/m2
09:28 55 °F 53.6 °F 29.9 in Calm     95% 0 in 37 W/m2
09:33 55.2 °F 53.8 °F 29.9 in Calm     95% 0 in 69 W/m2
09:38 55.2 °F 53.8 °F 29.9 in Calm     95% 0 in 47 W/m2
09:43 55.4 °F 54 °F 29.9 in Calm     95% 0 in 70 W/m2
09:48 55.6 °F 54.1 °F 29.9 in Calm     95% 0 in 120 W/m2
09:53 55.9 °F 54.5 °F 29.9 in Calm     95% 0 in 155 W/m2
09:58 56.1 °F 54.7 °F 29.9 in Calm     95% 0 in 243 W/m2
10:03 56.7 °F 55.6 °F 29.9 in Calm   1 mph 96% 0 in 197 W/m2
10:08 56.8 °F 55.8 °F 29.9 in Calm     96% 0 in 95 W/m2
10:13 57.2 °F 56.1 °F 29.9 in Calm     96% 0 in 70 W/m2
10:19 57.6 °F 56.1 °F 29.9 in Calm     95% 0 in 179 W/m2
10:24 57.7 °F 56.3 °F 29.9 in Calm   2 mph 95% 0 in 56 W/m2
10:29 57.9 °F 56.5 °F 29.9 in Calm   1 mph 95% 0 in 104 W/m2
10:34 58.3 °F 56.5 °F 29.9 in ENE 0.9 mph 2 mph 94% 0 in 91 W/m2
10:39 58.5 °F 56.7 °F 29.9 in East 0.9 mph 2 mph 94% 0 in 151 W/m2
10:44 58.8 °F 57 °F 29.9 in Calm     94% 0 in 262 W/m2
10:49 59.4 °F 57.4 °F 29.9 in Calm   1 mph 93% 0 in 141 W/m2
10:54 59.5 °F 57.2 °F 29.9 in ESE 2 mph 3 mph 92% 0 in 91 W/m2
10:59 59.7 °F 57 °F 29.9 in Calm     91% 0 in 65 W/m2
11:04 59.7 °F 57 °F 29.9 in Calm   2 mph 91% 0 in 83 W/m2
11:09 59.9 °F 57 °F 29.9 in SE 0.9 mph 1 mph 90% 0 in 56 W/m2
11:14 59.9 °F 57.2 °F 29.9 in NE 2 mph 2 mph 91% 0 in 54 W/m2
11:19 59.9 °F 57 °F 29.9 in Calm   2 mph 90% 0 in 54 W/m2
11:24 60.3 °F 57.4 °F 29.9 in ESE 2 mph 3 mph 90% 0 in 58 W/m2
11:29 60.4 °F 56.8 °F 29.9 in NE 4 mph 5 mph 88% 0 in 60 W/m2
11:34 61.2 °F 57 °F 29.9 in SSE 2 mph 4 mph 86% 0 in 135 W/m2
11:39 61.7 °F 57.2 °F 29.9 in NW 2 mph 2 mph 85% 0 in 62 W/m2
11:44 62.2 °F 57 °F 29.9 in NNE 0.9 mph 5 mph 83% 0 in 67 W/m2
11:49 63 °F 57.4 °F 29.9 in NE 2 mph 4 mph 82% 0 in 56 W/m2
11:54 63.1 °F 56.8 °F 29.9 in WNW 2 mph 5 mph 80% 0 in 53 W/m2
11:59 63.5 °F 56.8 °F 29.9 in ENE 2 mph 4 mph 79% 0 in 54 W/m2
12:04 64 °F 57 °F 29.9 in WNW 4 mph 8 mph 78% 0 in 54 W/m2
12:09 64.6 °F 56.8 °F 29.9 in West 2.9 mph 8 mph 76% 0 in 58 W/m2
12:14 64.8 °F 56.7 °F 29.9 in West 2 mph 7 mph 75% 0 in 65 W/m2
12:19 64.9 °F 57.2 °F 29.9 in WNW 0.9 mph 3 mph 76% 0 in 54 W/m2
12:24 65.1 °F 57 °F 29.9 in NW 0.9 mph 1 mph 75% 0 in 70 W/m2
12:29 65.3 °F 57.2 °F 29.9 in NNW 2 mph 4 mph 75% 0 in 70 W/m2
12:34 65.7 °F 57.2 °F 29.9 in NE 0.9 mph 4 mph 74% 0 in 105 W/m2
12:39 65.8 °F 57 °F 29.9 in East 0.9 mph 5 mph 73% 0 in 107 W/m2
12:44 65.8 °F 57 °F 29.9 in Calm   4 mph 73% 0 in 165 W/m2
12:49 66 °F 57.2 °F 29.9 in WNW 2 mph 4 mph 73% 0 in 207 W/m2
12:54 66 °F 57.2 °F 29.9 in NW 0.9 mph 4 mph 73% 0 in 494 W/m2
12:59 66.4 °F 57 °F 29.9 in WSW 4 mph 9 mph 72% 0 in 144 W/m2
13:04 66.6 °F 57.2 °F 29.9 in East 0.9 mph 3 mph 72% 0 in 165 W/m2
13:09 66.7 °F 57.4 °F 29.9 in NW 2 mph 13 mph 72% 0 in 190 W/m2
13:14 66.9 °F 57.6 °F 29.9 in North 2 mph 5 mph 72% 0 in 128 W/m2
13:19 67.3 °F 57.6 °F 29.9 in WNW 4 mph 12 mph 71% 0 in 90 W/m2
13:24 67.5 °F 57.4 °F 29.9 in WNW 2.9 mph 4 mph 70% 0 in 83 W/m2
13:30 67.5 °F 57 °F 29.9 in WNW 2.9 mph 10 mph 69% 0 in 137 W/m2
13:35 67.6 °F 57.6 °F 29.9 in WNW 0.9 mph 4 mph 70% 0 in 207 W/m2
13:40 67.8 °F 57.7 °F 29.9 in SW 0.9 mph 9 mph 70% 0 in 156 W/m2
13:45 68.2 °F 57.6 °F 29.9 in WNW 2.9 mph 6 mph 69% 0 in 200 W/m2
13:50 68.4 °F 58.3 °F 29.9 in NW 2 mph 4 mph 70% 0 in 193 W/m2
13:55 68.5 °F 58.3 °F 29.9 in WNW 2 mph 3 mph 70% 0 in 135 W/m2
14:00 68.5 °F 57.6 °F 29.9 in West 0.9 mph 7 mph 68% 0 in 137 W/m2
14:05 68.4 °F 57.7 °F 29.9 in WNW 0.9 mph 3 mph 69% 0 in 185 W/m2
14:10 68.5 °F 57.9 °F 29.9 in WNW 2.9 mph 3 mph 69% 0 in 176 W/m2
14:15 68.5 °F 57.9 °F 29.9 in West 2 mph 4 mph 69% 0 in 149 W/m2
14:20 68.7 °F 57.7 °F 29.9 in West 2.9 mph 8 mph 68% 0 in 158 W/m2
14:25 68.9 °F 57.9 °F 29.9 in WNW 0.9 mph 4 mph 68% 0 in 95 W/m2
14:30 69.1 °F 58.5 °F 29.9 in WNW 6.9 mph 10 mph 69% 0 in 90 W/m2
14:35 69.1 °F 58.5 °F 29.9 in WNW 2.9 mph 4 mph 69% 0 in 83 W/m2
14:40 69.1 °F 58.1 °F 29.9 in WNW 4.9 mph 9 mph 68% 0 in 102 W/m2
14:45 69.1 °F 57.7 °F 29.9 in NW 0.9 mph 5 mph 67% 0 in 102 W/m2
14:50 69.1 °F 57.7 °F 29.9 in NNW 0.9 mph 9 mph 67% 0 in 139 W/m2
14:55 69.1 °F 57.7 °F 29.9 in NNE 2.9 mph 5 mph 67% 0 in 183 W/m2
15:00 69.1 °F 57.7 °F 29.9 in NW 0.9 mph 9 mph 67% 0 in 148 W/m2
15:05 69.1 °F 57.7 °F 29.9 in West 6.9 mph 7 mph 67% 0 in 176 W/m2
15:10 69.1 °F 57.2 °F 29.9 in WNW 4 mph 10 mph 66% 0 in 137 W/m2
15:15 68.9 °F 57 °F 29.9 in WNW 4.9 mph 6 mph 66% 0 in 130 W/m2
15:20 68.7 °F 57.4 °F 29.9 in SSE 0.9 mph 5 mph 67% 0 in 130 W/m2
15:25 68.7 °F 57.4 °F 29.9 in WNW 0.9 mph 2 mph 67% 0 in 116 W/m2
15:30 68.7 °F 57.7 °F 29.9 in NNE 2 mph 2 mph 68% 0 in 86 W/m2
15:35 68.5 °F 57.2 °F 29.9 in South 0.9 mph 2 mph 67% 0 in 105 W/m2
15:40 68.5 °F 57.6 °F 29.9 in WNW 0.9 mph 4 mph 68% 0 in 77 W/m2
15:45 68.4 °F 57.4 °F 29.9 in Calm   4 mph 68% 0 in 81 W/m2
15:50 68.4 °F 57.7 °F 29.9 in NW 0.9 mph 2 mph 69% 0 in 113 W/m2
15:55 68.2 °F 58.1 °F 29.9 in NNW 0.9 mph 2 mph 70% 0 in 98 W/m2
16:00 68 °F 57.4 °F 29.9 in Calm   2 mph 69% 0 in 79 W/m2
16:05 68 °F 57.9 °F 29.9 in Calm   3 mph 70% 0 in 63 W/m2
16:10 67.8 °F 57.7 °F 29.9 in NW 0.9 mph 1 mph 70% 0 in 58 W/m2
16:15 67.6 °F 58.6 °F 29.9 in Calm   1 mph 73% 0 in 54 W/m2
16:20 67.3 °F 59 °F 29.9 in Calm   2 mph 75% 0 in 47 W/m2
16:25 66.7 °F 59 °F 29.9 in SE 0.9 mph 2 mph 76% 0 in 32 W/m2
16:30 66.6 °F 59.5 °F 29.9 in Calm   1 mph 78% 0 in 30 W/m2
16:35 66.2 °F 59.5 °F 29.9 in SW 0.9 mph 1 mph 79% 0 in 33 W/m2
16:40 65.8 °F 59.5 °F 29.9 in Calm     80% 0 in 67 W/m2
16:45 65.7 °F 59 °F 29.9 in Calm     79% 0 in 56 W/m2
16:50 65.5 °F 58.8 °F 29.9 in ESE 0.9 mph 2 mph 79% 0 in 56 W/m2
16:55 65.3 °F 58.3 °F 29.9 in Calm   1 mph 78% 0 in 60 W/m2
17:00 65.3 °F 58.6 °F 29.9 in Calm     79% 0 in 56 W/m2
17:05 65.5 °F 58.5 °F 29.9 in SE 0.9 mph 1 mph 78% 0 in 65 W/m2
17:10 65.5 °F 58.5 °F 29.9 in NNE 2 mph 3 mph 78% 0 in 72 W/m2
17:15 65.7 °F 58.3 °F 29.9 in NE 2 mph 2 mph 77% 0 in 72 W/m2
17:20 65.8 °F 58.5 °F 29.9 in NE 2 mph 4 mph 77% 0 in 62 W/m2
17:25 65.8 °F 58.8 °F 29.9 in East 2 mph 4 mph 78% 0 in 35 W/m2
17:30 65.7 °F 58.3 °F 29.9 in NE 2 mph 4 mph 77% 0 in 49 W/m2
17:35 65.7 °F 57.9 °F 29.9 in ENE 0.9 mph 3 mph 76% 0 in 63 W/m2
17:40 65.7 °F 57.9 °F 29.9 in Calm   4 mph 76% 0 in 56 W/m2
17:45 65.7 °F 57.9 °F 29.9 in Calm   3 mph 76% 0 in 32 W/m2
17:50 65.8 °F 58.5 °F 29.9 in NNW 0.9 mph 1 mph 77% 0 in 30 W/m2
17:55 65.7 °F 57.9 °F 29.9 in Calm   1 mph 76% 0 in 40 W/m2
18:00 65.5 °F 58.1 °F 29.9 in Calm   3 mph 77% 0 in 40 W/m2
18:05 65.5 °F 58.1 °F 29.9 in North 0.9 mph 2 mph 77% 0 in 39 W/m2
18:10 65.3 °F 57.9 °F 29.9 in North 0.9 mph 2 mph 77% 0 in 32 W/m2
18:15 65.1 °F 58.1 °F 29.9 in North 0.9 mph 3 mph 78% 0 in 21 W/m2
18:20 64.9 °F 57.9 °F 29.9 in Calm   1 mph 78% 0 in 12 W/m2
18:25 64.8 °F 58.1 °F 29.9 in NE 0.9 mph 3 mph 79% 0 in 5 W/m2
18:30 64.6 °F 57.9 °F 29.9 in NNE 0.9 mph 1 mph 79% 0 in 0 W/m2
18:35 63.9 °F 57.6 °F 29.9 in Calm   2 mph 80% 0 in 0 W/m2
18:40 63.5 °F 57.6 °F 29.9 in NNW 0.9 mph 3 mph 81% 0 in 0 W/m2
18:45 63.3 °F 57.7 °F 29.9 in NW 2 mph 3 mph 82% 0 in 0 W/m2
18:50 63.1 °F 57.6 °F 29.9 in NNE 0.9 mph 3 mph 82% 0 in 0 W/m2
18:55 63.1 °F 57.6 °F 29.9 in NNW 2.9 mph 4 mph 82% 0 in 0 W/m2
19:00 63 °F 57.7 °F 29.9 in North 0.9 mph 4 mph 83% 0 in 0 W/m2
19:05 63 °F 57.7 °F 29.9 in NW 2 mph 3 mph 83% 0 in 0 W/m2
19:10 62.8 °F 57.6 °F 29.9 in East 2.9 mph 6 mph 83% 0 in 0 W/m2
19:15 62.8 °F 57.6 °F 29.9 in NW 0.9 mph 4 mph 83% 0 in 0 W/m2
19:20 62.8 °F 57.6 °F 29.9 in NNE 0.9 mph 8 mph 83% 0 in 0 W/m2
19:25 62.6 °F 57.4 °F 29.9 in NE 4 mph 5 mph 83% 0 in 0 W/m2
19:30 62.6 °F 57.4 °F 29.9 in North 0.9 mph 8 mph 83% 0 in 0 W/m2
19:35 62.6 °F 57.4 °F 29.9 in WNW 4 mph 4 mph 83% 0 in 0 W/m2
19:40 62.4 °F 57.2 °F 29.9 in Calm   3 mph 83% 0 in 0 W/m2
19:45 62.4 °F 57.2 °F 29.9 in WNW 0.9 mph 3 mph 83% 0 in 0 W/m2
19:50 62.2 °F 57 °F 29.9 in North 0.9 mph 2 mph 83% 0 in 0 W/m2
19:55 62.2 °F 57 °F 29.9 in NW 2.9 mph 4 mph 83% 0 in 0 W/m2
20:00 62.2 °F 57 °F 29.9 in Calm   2 mph 83% 0 in 0 W/m2
20:05 62.2 °F 57.4 °F 29.9 in WNW 2.9 mph 5 mph 84% 0 in 0 W/m2
20:10 62.2 °F 57.4 °F 29.9 in Calm   2 mph 84% 0 in 0 W/m2
20:15 62.2 °F 57.4 °F 29.9 in North 0.9 mph 3 mph 84% 0 in 0 W/m2
20:20 62.2 °F 57.4 °F 29.9 in NE 0.9 mph 3 mph 84% 0 in 0 W/m2
20:25 62.2 °F 57.4 °F 29.9 in Calm   3 mph 84% 0 in 0 W/m2
20:30 62.1 °F 57.2 °F 29.9 in NNW 0.9 mph 2 mph 84% 0 in 0 W/m2
20:35 62.1 °F 57.2 °F 29.9 in Calm   3 mph 84% 0 in 0 W/m2
20:40 61.9 °F 57 °F 29.9 in NNW 0.9 mph 3 mph 84% 0 in 0 W/m2
20:45 61.9 °F 57.4 °F 29.9 in NNW 2.9 mph 3 mph 85% 0 in 0 W/m2
20:50 61.9 °F 57.4 °F 29.9 in WNW 2.9 mph 4 mph 85% 0 in 0 W/m2
20:55 61.9 °F 57.4 °F 29.9 in Calm   3 mph 85% 0 in 0 W/m2
21:00 61.7 °F 57.2 °F 29.9 in Calm   2 mph 85% 0 in 0 W/m2
21:05 61.7 °F 57.2 °F 29.9 in NNE 0.9 mph 1 mph 85% 0 in 0 W/m2
21:10 61.5 °F 57.4 °F 29.9 in NNE 2 mph 3 mph 86% 0 in 0 W/m2
21:15 61.5 °F 57.4 °F 29.9 in NNW 2.9 mph 4 mph 86% 0 in 0 W/m2
21:20 61.5 °F 57.4 °F 29.9 in NNW 2 mph 6 mph 86% 0 in 0 W/m2
21:25 61.3 °F 57.2 °F 29.9 in NNE 2.9 mph 3 mph 86% 0 in 0 W/m2
21:30 61.3 °F 57.2 °F 29.9 in NNW 0.9 mph 5 mph 86% 0 in 0 W/m2
21:35 61.3 °F 57.4 °F 29.9 in Calm   1 mph 87% 0 in 0 W/m2
21:40 61.2 °F 57.2 °F 29.9 in Calm   3 mph 87% 0 in 0 W/m2
21:45 61.2 °F 57.2 °F 29.9 in ENE 0.9 mph 5 mph 87% 0 in 0 W/m2
21:50 61.2 °F 57.2 °F 29.9 in NNW 2 mph 4 mph 87% 0 in 0 W/m2
21:55 61 °F 57.4 °F 29.9 in NW 2.9 mph 4 mph 88% 0 in 0 W/m2
22:00 61 °F 57.4 °F 29.9 in ENE 2 mph 4 mph 88% 0 in 0 W/m2
22:05 60.8 °F 57.2 °F 29.9 in ENE 0.9 mph 2 mph 88% 0 in 0 W/m2
22:10 60.6 °F 57 °F 29.9 in WNW 0.9 mph 4 mph 88% 0 in 0 W/m2
22:15 60.6 °F 57.4 °F 29.9 in Calm   2 mph 89% 0 in 0 W/m2
22:20 60.4 °F 57.2 °F 29.9 in ENE 0.9 mph 3 mph 89% 0 in 0 W/m2
22:25 60.4 °F 57.2 °F 29.9 in ENE 0.9 mph 2 mph 89% 0 in 0 W/m2
22:30 60.4 °F 57.2 °F 29.9 in Calm   3 mph 89% 0 in 0 W/m2
22:35 60.4 °F 57.2 °F 29.9 in Calm   2 mph 89% 0 in 0 W/m2
22:40 60.3 °F 57 °F 29.9 in NE 0.9 mph 3 mph 89% 0 in 0 W/m2
22:45 60.3 °F 57.4 °F 29.9 in Calm   2 mph 90% 0 in 0 W/m2
22:50 60.1 °F 57.2 °F 29.9 in ENE 2 mph 2 mph 90% 0 in 0 W/m2
22:55 59.9 °F 57 °F 29.9 in Calm   1 mph 90% 0 in 0 W/m2
23:00 59.7 °F 57 °F 29.9 in ENE 2 mph 2 mph 91% 0 in 0 W/m2
23:05 59.5 °F 56.8 °F 29.9 in Calm   3 mph 91% 0 in 0 W/m2
23:10 59.5 °F 57.2 °F 29.9 in NE 2 mph 3 mph 92% 0 in 0 W/m2
23:15 59.4 °F 56.7 °F 29.9 in NE 4 mph 4 mph 91% 0 in 0 W/m2
23:20 59.4 °F 57 °F 29.9 in Calm   2 mph 92% 0 in 0 W/m2
23:25 59.2 °F 56.8 °F 29.9 in Calm   4 mph 92% 0 in 0 W/m2
23:30 59.2 °F 56.8 °F 29.9 in ESE 0.9 mph 2 mph 92% 0 in 0 W/m2
23:35 59 °F 56.7 °F 29.9 in Calm   1 mph 92% 0 in 0 W/m2
23:40 58.8 °F 56.5 °F 29.9 in NE 0.9 mph 3 mph 92% 0 in 0 W/m2
23:45 58.8 °F 56.5 °F 29.9 in Calm   2 mph 92% 0 in 0 W/m2
23:50 58.8 °F 56.5 °F 29.9 in Calm   1 mph 92% 0 in 0 W/m2
23:55 58.6 °F 56.7 °F 29.9 in Calm     93% 0 in 0 W/m2
Juneau County Weather
Compliments of Weather Underground - 4 mb